Terminal Aerodrome Forecast
Issued by NWS Charleston, WV

Current Version | Previous Version | Graphics & Text | Print | Product List | Glossary On
Versions: 1 2 3 4 5 6 7 8 9 10 11 12 13 14 15 16 17 18 19 20 21
000
FTUS41 KRLX 250500
TAFBKW
TAF
KBKW 250535Z 2506/2606 15005KT P6SM SCT020
      TEMPO 2507/2511 BKN020
     FM251300 12007KT P6SM SCT025
     FM251500 13008KT P6SM FEW035
     FM252300 13005KT P6SM SKC=

USA.gov is the U.S. government's official web portal to all federal, state and local government web resources and services.